Miscellaneous Local Product
Issued by NWS North Platte, NE

Home | Current Version | Previous Version | Text Only | Print | Product List | Glossary On
Versions: 1 2 3 4 5 6 7 8 9 10 11 12 13 14 15 16 17 18 19 20 21 22 23 24 25 26 27 28 29 30 31 32 33 34 35 36 37 38 39 40 41 42 43 44 45 46 47 48 49 50
000
AXUS43 KLBF 210710
MISLBF


WESTERN AND NORTH CENTRAL NEBRASKA HOURLY WEATHER ROUNDUP
NATIONAL WEATHER SERVICE NORTH PLATTE NE
200 AM CDT MON AUG 21 2017

NOTE: "FAIR" INDICATES FEW OR NO CLOUDS BELOW 12,000 FEET WITH NO
SIGNIFICANT WEATHER AND/OR OBSTRUCTIONS TO VISIBILITY.

NOTE: STATIONS NOT REPORTING VARIABLES SUCH AS SKY/WEATHER OR
PRESSURE ARE PROVIDED BY RAWS AND APRS NETWORKS AND ARE NOT UNDER
NATIONAL WEATHER SERVICE QUALITY CONTROL.

...OBSERVATIONS IN AND NEAR THE EASTERN PANHANDLE OF NEBRASKA...

CITY           SKY/WX    TMP DP  RH WIND       PRES   REMARKS
PINE RIDGE     MOCLDY    66  59  78 NE5       30.04R
GORDON         CLOUDY    64  58  82 E3        30.04S
CHADRON        MOCLDY    68  59  73 E10       30.01F
ALLIANCE       PTCLDY    63  62  97 SE8       30.04R
SIDNEY         CLEAR     63  61  93 CALM      30.06F
CRESCENT LAKE    N/A     66  64  95 E3          N/A
$$

...OBSERVATIONS IN NORTHERN NEBRASKA AND FAR SOUTHERN SOUTH DAKOTA...

CITY           SKY/WX    TMP DP  RH WIND       PRES   REMARKS
WINNER         FAIR      66  62  87 E7        29.98F
VALENTINE      CLEAR     66  61  84 NE5       30.01S
THEDFORD       CLOUDY    67  67  97 CALM      30.02S FOG
AINSWORTH      MOCLDY    66  66 100 E3        30.00F
O`NEILL        CLOUDY    69  69 100 NE3       29.97F
ORD            CLOUDY    70  67  90 CALM      29.94F
BROKEN BOW     PTCLDY    72  69  90 E5        29.97F
VALENTINE NWR    N/A     66  65  98 E5          N/A
HALSEY           N/A     69  69  99 E3          N/A
BUTTE            N/A     65  63  94 NE5         N/A
CHAMBERS         N/A     69  67  93 CALM        N/A
EWING            N/A     69  67  93 CALM        N/A
$$

...OBSERVATIONS IN SOUTHWEST NEBRASKA AND FAR NORTHEAST COLORADO...

CITY           SKY/WX    TMP DP  RH WIND       PRES   REMARKS
HOLYOKE        FAIR      66  63  88 E5        30.02F
IMPERIAL       CLOUDY    68  66  93 SE6       29.99F
OGALLALA       MOCLDY    72  70  93 E5        30.00F
NORTH PLATTE   CLOUDY    74  73  97 E9        29.98F
MCCOOK         PTCLDY    76  65  68 SW8       29.96S
LEXINGTON      FOG       70  69  95 CALM      29.97S VSB 3/4
STAPLETON        N/A     71  69  95 CALM        N/A
GOTHENBURG       N/A     73  69  86 E3          N/A
CALLAWAY         N/A     72  70  94 SE7         N/A
$$

...OBSERVATIONS IN CENTRAL LINCOLN COUNTY AREA...

CITY           SKY/WX    TMP DP  RH WIND       PRES   REMARKS
N.P. AIRPORT   CLOUDY    74  73  97 E9        29.98F
N.P. DOWNTOWN    N/A     74  72  93 CALM        N/A
N.P. SOUTHEAST   N/A     73  71  93 CALM        N/A
N.P. HILLCREST   N/A     73  71  95 E8          N/A
$$

...SOME OBSERVATIONS FROM AROUND THE REGION...

CITY           SKY/WX    TMP DP  RH WIND       PRES   REMARKS
DENVER         CLOUDY    71  43  36 SW12      30.13S
LIMON          CLOUDY    58  49  72 N6        30.13F
ASPEN          CLOUDY    59  38  45 CALM      30.31R
LARAMIE        CLOUDY    52  37  56 CALM      30.25S
CASPER         CLEAR     62  39  42 CALM      30.13R
CHEYENNE       CLOUDY    60  48  64 W8        30.17F
SCOTTSBLUFF    CLEAR     67  63  87 E7        30.04R
GRAND ISLAND   PTCLDY    73  72  96 S6        29.94F
OMAHA          CLOUDY    74  67  78 NE10      29.98R
SIOUX FALLS    MOCLDY    65  63  93 NE7       30.00R
PIERRE         MOCLDY    62  53  72 E10       30.00S
RAPID CITY     PTCLDY    62  54  74 NE10      30.01S
BISMARCK       PTCLDY    56  52  86 NE5       30.02F
KANSAS CITY    PTCLDY    74  67  78 S10       29.99F
HILL CITY      CLOUDY    80  65  59 S10       29.98S
WICHITA        CLOUDY    79  73  82 S14       30.02S
DODGE CITY     PTCLDY    77  65  66 S16G26    30.06R
OKLAHOMA CITY  PTCLDY    76  71  85 S8        30.05S
DALLAS         PTCLDY    84  72  67 S12       30.03S
AMARILLO       MOCLDY    67  65  93 E5        30.15F
$$




USA.gov is the U.S. government's official web portal to all federal, state and local government web resources and services.